| time (UTC) | temp F | wind direction | speed MPH | gust MPH | rain 1hr in | rain 24hr in | rain mn in | humidity % | barometer mb |
| 20260831030416 | 69 | 245 | 3.0 | 9.0 | 0.00 | 0.00 | 0.00 | 67 | 1028.4 |
| 20260831025416 | 69 | 185 | 2.0 | 7.0 | 0.00 | 0.00 | 0.00 | 65 | 1028.6 |
| 20260831024418 | 70 | 109 | 2.0 | 6.0 | 0.00 | 0.00 | 0.00 | 64 | 1028.8 |
| 20260831023414 | 70 | 135 | 2.0 | 5.0 | 0.00 | 0.00 | 0.00 | 63 | 1028.9 |
| 20260831022411 | 70 | 180 | 2.0 | 5.0 | 0.00 | 0.00 | 0.00 | 65 | 1029.0 |
| 20260831021412 | 69 | 207 | 2.0 | 8.0 | 0.00 | 0.00 | 0.00 | 66 | 1029.1 |
| 20260831020412 | 69 | 135 | 3.0 | 7.0 | 0.00 | 0.00 | 0.00 | 66 | 1029.3 |
| 20260831015852 | 69 | 169 | 3.0 | 8.0 | 0.00 | 0.00 | 0.00 | 66 | 1029.3 |
| 20260831014852 | 70 | 209 | 2.0 | 5.0 | 0.00 | 0.00 | 0.00 | 64 | 1029.5 |
| 20260831013409 | 70 | 137 | 2.0 | 8.0 | 0.00 | 0.00 | 0.00 | 64 | 1029.6 |
| 20260831012406 | 69 | 106 | 2.0 | 9.0 | 0.00 | 0.00 | 0.00 | 65 | 1029.6 |
| 20260831011407 | 70 | 165 | 2.0 | 4.0 | 0.00 | 0.00 | 0.00 | 65 | 1029.7 |
| 20260831010407 | 69 | 13 | 2.0 | 4.0 | 0.00 | 0.00 | 0.00 | 65 | 1029.8 |
| 20260831005408 | 68 | 134 | 2.0 | 7.0 | 0.00 | 0.00 | 0.00 | 67 | 1029.9 |
| 20260831004406 | 68 | 276 | 2.0 | 4.0 | 0.00 | 0.00 | 0.00 | 67 | 1029.9 |
| 20260831003404 | 67 | 20 | 2.0 | 5.0 | 0.00 | 0.00 | 0.00 | 70 | 1030.0 |
| 20260831002404 | 67 | 328 | 2.0 | 4.0 | 0.00 | 0.00 | 0.00 | 71 | 1030.1 |
| 20260831001405 | 67 | 189 | 2.0 | 5.0 | 0.00 | 0.00 | 0.00 | 70 | 1030.1 |
| 20260831000405 | 66 | 45 | 2.0 | 9.0 | 0.00 | 0.00 | 0.00 | 73 | 1030.1 |
| 20260830235405 | 65 | 55 | 3.0 | 6.0 | 0.00 | 0.00 | 0.00 | 74 | 1030.1 |
| 20260830234401 | 64 | 129 | 2.0 | 9.0 | 0.00 | 0.00 | 0.00 | 77 | 1030.1 |
| 20260830233402 | 63 | 1 | 2.0 | 7.0 | 0.00 | 0.00 | 0.00 | 80 | 1030.2 |
| 20260830232402 | 61 | 328 | 2.0 | 4.0 | 0.00 | 0.00 | 0.00 | 85 | 1030.2 |
| 20260830231403 | 60 | 98 | 2.0 | 16.0 | 0.00 | 0.00 | 0.00 | 91 | 1030.2 |
| 20260830230403 | 59 | 127 | 2.0 | 6.0 | 0.00 | 0.00 | 0.00 | 97 | 1030.2 |
| 20260830225403 | 58 | 133 | 2.0 | 5.0 | 0.00 | 0.00 | 0.00 | 100 | 1030.2 |
| 20260830224400 | 57 | 229 | 2.0 | 4.0 | 0.00 | 0.00 | 0.00 | 100 | 1030.1 |
| 20260830223835 | 56 | 132 | 2.0 | 7.0 | 0.00 | 0.00 | 0.00 | 100 | 1030.1 |
| 20260830222836 | 56 | 131 | 2.0 | 3.0 | 0.00 | 0.00 | 0.00 | 100 | 1030.1 |
| 20260830221400 | 56 | 89 | 2.0 | 4.0 | 0.00 | 0.00 | 0.00 | 100 | 1030.0 |
| 20260830220400 | 55 | 134 | 2.0 | 6.0 | 0.00 | 0.00 | 0.00 | 100 | 1030.0 |
| 20260830215401 | 54 | 123 | 2.0 | 6.0 | 0.00 | 0.00 | 0.00 | 100 | 1030.0 |
| 20260830214358 | 53 | 90 | 4.0 | 7.0 | 0.00 | 0.00 | 0.00 | 100 | 1029.9 |
| 20260830213355 | 52 | 56 | 3.0 | 6.0 | 0.00 | 0.00 | 0.00 | 100 | 1029.8 |
| 20260830212356 | 51 | 38 | 2.0 | 6.0 | 0.00 | 0.00 | 0.00 | 100 | 1029.6 |
| 20260830211355 | 49 | 43 | 1.0 | 3.0 | 0.00 | 0.00 | 0.00 | 100 | 1029.5 |
| 20260830210356 | 48 | 37 | 1.0 | 2.0 | 0.00 | 0.00 | 0.00 | 100 | 1029.4 |
| 20260830205352 | 47 | 23 | 1.0 | 2.0 | 0.00 | 0.00 | 0.00 | 100 | 1029.3 |
| 20260830204832 | 46 | 72 | 0.0 | 1.0 | 0.00 | 0.00 | 0.00 | 99 | 1029.1 |
| 20260830203350 | 46 | 37 | 0.0 | 1.0 | 0.00 | 0.00 | 0.00 | 99 | 1029.0 |
| 20260830202350 | 46 | 123 | 0.0 | 1.0 | 0.00 | 0.00 | 0.00 | 99 | 1028.9 |
| 20260830201350 | 46 | 324 | 0.0 | 2.0 | 0.00 | 0.00 | 0.00 | 99 | 1028.8 |
| 20260830195350 | 46 | 0 | 0.0 | 1.0 | 0.00 | 0.00 | 0.00 | 99 | 1028.6 |
| 20260830194348 | 45 | 346 | 0.0 | 1.0 | 0.00 | 0.00 | 0.00 | 99 | 1028.5 |
| 20260830193348 | 45 | 334 | 0.0 | 1.0 | 0.00 | 0.00 | 0.00 | 99 | 1028.5 |
| 20260830192348 | 45 | 279 | 0.0 | 2.0 | 0.00 | 0.00 | 0.00 | 99 | 1028.4 |
| 20260830191348 | 45 | 10 | 0.0 | 1.0 | 0.00 | 0.00 | 0.00 | 99 | 1028.4 |
| 20260830190348 | 44 | 0 | 0.0 | 2.0 | 0.00 | 0.00 | 0.00 | 99 | 1028.4 |
| 20260830185346 | 44 | 311 | 0.0 | 1.0 | 0.00 | 0.00 | 0.00 | 99 | 1028.5 |
| 20260830184346 | 44 | 322 | 0.0 | 1.0 | 0.00 | 0.00 | 0.00 | 99 | 1028.5 |
| 20260830183347 | 44 | 0 | 0.0 | 1.0 | 0.00 | 0.00 | 0.00 | 99 | 1028.4 |
| 20260830182815 | 44 | 43 | 0.0 | 1.0 | 0.00 | 0.00 | 0.00 | 99 | 1028.4 |
| 20260830181343 | 44 | 0 | 0.0 | 1.0 | 0.00 | 0.00 | 0.00 | 99 | 1028.4 |
| 20260830180818 | 44 | 0 | 0.0 | 1.0 | 0.00 | 0.00 | 0.00 | 99 | 1028.4 |
| 20260830175341 | 44 | 77 | 0.0 | 2.0 | 0.00 | 0.00 | 0.00 | 99 | 1028.5 |
| 20260830174337 | 44 | 69 | 0.0 | 1.0 | 0.00 | 0.00 | 0.00 | 99 | 1028.4 |
| 20260830173340 | 44 | 33 | 0.0 | 1.0 | 0.00 | 0.00 | 0.00 | 99 | 1028.4 |
| 20260830172337 | 43 | 0 | 0.0 | 1.0 | 0.00 | 0.00 | 0.00 | 99 | 1028.4 |
| 20260830171338 | 44 | 11 | 0.0 | 1.0 | 0.00 | 0.00 | 0.00 | 99 | 1028.3 |
| 20260830170337 | 44 | 227 | 0.0 | 1.0 | 0.00 | 0.00 | 0.00 | 98 | 1028.3 |
| 20260830165337 | 45 | 0 | 0.0 | 1.0 | 0.00 | 0.00 | 0.00 | 99 | 1028.3 |
| 20260830164337 | 45 | 0 | 0.0 | 2.0 | 0.00 | 0.00 | 0.00 | 99 | 1028.2 |
| 20260830163822 | 45 | 74 | 0.0 | 1.0 | 0.00 | 0.00 | 0.00 | 99 | 1028.3 |
| 20260830162337 | 45 | 0 | 0.0 | 1.0 | 0.00 | 0.00 | 0.00 | 99 | 1028.5 |
| 20260830161336 | 45 | 0 | 0.0 | 1.0 | 0.00 | 0.00 | 0.00 | 98 | 1028.4 |
| 20260830160336 | 45 | 33 | 0.0 | 1.0 | 0.00 | 0.00 | 0.00 | 99 | 1028.6 |
| 20260830155336 | 44 | 0 | 0.0 | 1.0 | 0.00 | 0.00 | 0.00 | 98 | 1028.6 |
| 20260830154813 | 43 | 0 | 0.0 | 1.0 | 0.00 | 0.00 | 0.00 | 98 | 1028.6 |
| 20260830153338 | 43 | 0 | 0.0 | 1.0 | 0.00 | 0.00 | 0.00 | 98 | 1028.6 |
| 20260830152334 | 43 | 0 | 0.0 | 0.0 | 0.00 | 0.00 | 0.00 | 98 | 1028.7 |
| 20260830151334 | 44 | 106 | 0.0 | 1.0 | 0.00 | 0.00 | 0.00 | 98 | 1028.7 |
| 20260830150334 | 44 | 0 | 0.0 | 1.0 | 0.00 | 0.00 | 0.00 | 98 | 1028.8 |
| 20260830145335 | 45 | 0 | 0.0 | 1.0 | 0.00 | 0.00 | 0.00 | 98 | 1028.7 |
| 20260830144332 | 46 | 88 | 0.0 | 1.0 | 0.00 | 0.00 | 0.00 | 98 | 1028.8 |
| 20260830143809 | 47 | 0 | 0.0 | 1.0 | 0.00 | 0.00 | 0.00 | 98 | 1028.8 |
| 20260830142329 | 47 | 59 | 0.0 | 1.0 | 0.00 | 0.00 | 0.00 | 98 | 1028.7 |
| 20260830140329 | 46 | 64 | 0.0 | 1.0 | 0.00 | 0.00 | 0.00 | 98 | 1028.7 |
| 20260830135329 | 46 | 0 | 0.0 | 1.0 | 0.00 | 0.00 | 0.00 | 97 | 1028.8 |
| 20260830134330 | 47 | 0 | 0.0 | 1.0 | 0.00 | 0.00 | 0.00 | 98 | 1028.8 |
| 20260830133329 | 47 | 0 | 0.0 | 1.0 | 0.00 | 0.00 | 0.00 | 97 | 1028.7 |
| 20260830132327 | 47 | 0 | 0.0 | 1.0 | 0.00 | 0.00 | 0.00 | 97 | 1028.8 |
| 20260830131328 | 46 | 0 | 0.0 | 0.0 | 0.00 | 0.00 | 0.00 | 97 | 1028.9 |
| 20260830130326 | 46 | 0 | 0.0 | 1.0 | 0.00 | 0.00 | 0.00 | 98 | 1028.9 |
| 20260830125328 | 45 | 0 | 0.0 | 1.0 | 0.00 | 0.00 | 0.00 | 96 | 1028.9 |
| 20260830124803 | 46 | 0 | 0.0 | 1.0 | 0.00 | 0.00 | 0.00 | 96 | 1029.0 |
| 20260830123328 | 46 | 0 | 0.0 | 1.0 | 0.00 | 0.00 | 0.00 | 96 | 1028.9 |
| 20260830122325 | 46 | 0 | 0.0 | 0.0 | 0.00 | 0.00 | 0.00 | 96 | 1028.9 |
| 20260830121325 | 46 | 0 | 0.0 | 1.0 | 0.00 | 0.00 | 0.00 | 96 | 1028.7 |
| 20260830120325 | 46 | 0 | 0.0 | 0.0 | 0.00 | 0.00 | 0.00 | 96 | 1028.7 |
| 20260830115325 | 47 | 0 | 0.0 | 1.0 | 0.00 | 0.00 | 0.00 | 96 | 1028.7 |
| 20260830114326 | 47 | 0 | 0.0 | 1.0 | 0.00 | 0.00 | 0.00 | 96 | 1028.7 |
| 20260830113326 | 48 | 0 | 0.0 | 1.0 | 0.00 | 0.00 | 0.00 | 96 | 1028.7 |
| 20260830112757 | 48 | 0 | 0.0 | 1.0 | 0.00 | 0.00 | 0.00 | 96 | 1028.8 |
| 20260830111758 | 49 | 0 | 0.0 | 0.0 | 0.00 | 0.00 | 0.00 | 96 | 1028.7 |
| 20260830110323 | 49 | 0 | 0.0 | 1.0 | 0.00 | 0.00 | 0.00 | 96 | 1028.8 |
| 20260830105323 | 49 | 0 | 0.0 | 0.0 | 0.00 | 0.00 | 0.00 | 96 | 1028.8 |
| 20260830104324 | 49 | 0 | 0.0 | 0.0 | 0.00 | 0.00 | 0.00 | 96 | 1028.8 |
| 20260830103320 | 48 | 0 | 0.0 | 0.0 | 0.00 | 0.00 | 0.00 | 95 | 1028.8 |
| 20260830102321 | 49 | 0 | 0.0 | 1.0 | 0.00 | 0.00 | 0.00 | 95 | 1028.7 |
| 20260830101321 | 49 | 0 | 0.0 | 1.0 | 0.00 | 0.00 | 0.00 | 96 | 1028.7 |
| 20260830100322 | 48 | 0 | 0.0 | 1.0 | 0.00 | 0.00 | 0.00 | 94 | 1028.7 |
| 20260830095759 | 48 | 0 | 0.0 | 1.0 | 0.00 | 0.00 | 0.00 | 94 | 1028.6 |
| 20260830094321 | 49 | 0 | 0.0 | 1.0 | 0.00 | 0.00 | 0.00 | 93 | 1028.5 |
| 20260830093319 | 50 | 0 | 0.0 | 0.0 | 0.00 | 0.00 | 0.00 | 93 | 1028.4 |
| 20260830091319 | 51 | 0 | 0.0 | 1.0 | 0.00 | 0.00 | 0.00 | 93 | 1028.3 |
| 20260830090318 | 52 | 0 | 0.0 | 1.0 | 0.00 | 0.00 | 0.00 | 93 | 1028.2 |
| 20260830084319 | 53 | 137 | 0.0 | 1.0 | 0.00 | 0.00 | 0.00 | 92 | 1028.1 |
| 20260830083317 | 53 | 0 | 0.0 | 1.0 | 0.00 | 0.00 | 0.00 | 91 | 1028.1 |
| 20260830082317 | 53 | 0 | 0.0 | 1.0 | 0.00 | 0.00 | 0.00 | 89 | 1028.0 |
| 20260830081317 | 54 | 0 | 0.0 | 1.0 | 0.00 | 0.00 | 0.00 | 87 | 1028.0 |
| 20260830080317 | 55 | 0 | 0.0 | 1.0 | 0.00 | 0.00 | 0.00 | 85 | 1027.9 |
| 20260830075317 | 56 | 0 | 0.0 | 1.0 | 0.00 | 0.00 | 0.00 | 84 | 1027.8 |
| 20260830074318 | 57 | 0 | 0.0 | 1.0 | 0.00 | 0.00 | 0.00 | 82 | 1027.7 |
| 20260830073315 | 58 | 0 | 0.0 | 1.0 | 0.00 | 0.00 | 0.00 | 81 | 1027.6 |
| 20260830072316 | 60 | 106 | 0.0 | 2.0 | 0.00 | 0.00 | 0.00 | 80 | 1027.5 |
| 20260830071315 | 61 | 252 | 0.0 | 2.0 | 0.00 | 0.00 | 0.00 | 78 | 1027.4 |
| 20260830070316 | 62 | 228 | 0.0 | 2.0 | 0.00 | 0.00 | 0.00 | 76 | 1027.5 |
| 20260830065316 | 62 | 194 | 1.0 | 4.0 | 0.00 | 0.00 | 0.00 | 75 | 1027.5 |
| 20260830064312 | 63 | 213 | 2.0 | 4.0 | 0.00 | 0.00 | 0.00 | 73 | 1027.5 |
| 20260830063314 | 64 | 261 | 2.0 | 4.0 | 0.00 | 0.00 | 0.00 | 72 | 1027.4 |
| 20260830062313 | 64 | 167 | 1.0 | 5.0 | 0.00 | 0.00 | 0.00 | 70 | 1027.4 |
| 20260830061800 | 65 | 188 | 1.0 | 4.0 | 0.00 | 0.00 | 0.00 | 69 | 1027.3 |
| 20260830060313 | 66 | 202 | 1.0 | 4.0 | 0.00 | 0.00 | 0.00 | 67 | 1027.3 |
| 20260830055312 | 68 | 92 | 1.0 | 3.0 | 0.00 | 0.00 | 0.00 | 64 | 1027.3 |
| 20260830054311 | 68 | 246 | 1.0 | 3.0 | 0.00 | 0.00 | 0.00 | 62 | 1027.4 |
| 20260830053311 | 68 | 184 | 1.0 | 4.0 | 0.00 | 0.00 | 0.00 | 62 | 1027.4 |
| 20260830052312 | 67 | 167 | 2.0 | 5.0 | 0.00 | 0.00 | 0.00 | 62 | 1027.4 |
| 20260830051312 | 67 | 192 | 2.0 | 6.0 | 0.00 | 0.00 | 0.00 | 62 | 1027.5 |
| 20260830050309 | 67 | 217 | 2.0 | 5.0 | 0.00 | 0.00 | 0.00 | 63 | 1027.7 |
| 20260830045309 | 67 | 79 | 2.0 | 4.0 | 0.00 | 0.00 | 0.00 | 62 | 1027.7 |
| 20260830044310 | 67 | 195 | 2.0 | 6.0 | 0.00 | 0.00 | 0.00 | 63 | 1027.7 |
| 20260830043310 | 67 | 183 | 2.0 | 7.0 | 0.00 | 0.00 | 0.00 | 66 | 1027.6 |
| 20260830042312 | 68 | 205 | 2.0 | 9.0 | 0.00 | 0.00 | 0.00 | 66 | 1027.7 |
| 20260830041307 | 68 | 80 | 2.0 | 6.0 | 0.00 | 0.00 | 0.00 | 65 | 1027.7 |
| 20260830040307 | 68 | 190 | 1.0 | 7.0 | 0.00 | 0.00 | 0.00 | 66 | 1027.7 |
| 20260830035749 | 68 | 202 | 2.0 | 6.0 | 0.00 | 0.00 | 0.00 | 66 | 1027.7 |
| 20260830034307 | 68 | 186 | 2.0 | 7.0 | 0.00 | 0.00 | 0.00 | 66 | 1027.7 |
| 20260830033308 | 69 | 157 | 2.0 | 5.0 | 0.00 | 0.00 | 0.00 | 65 | 1027.7 |
| 20260830032308 | 68 | 7 | 2.0 | 6.0 | 0.00 | 0.00 | 0.00 | 66 | 1027.7 |
| 20260830031308 | 67 | 205 | 2.0 | 5.0 | 0.00 | 0.00 | 0.00 | 67 | 1027.8 |